owner,sensor,date,latitude,longitude,vertical_datum,sea_water_temperature,qcFlag 
NDBC,ioos:station:wmo:42039:1,2017-07-01T00:50:00Z,28.7390,-86.0060,0.0,29.8,2 
NDBC,ioos:station:wmo:42039:1,2017-07-01T01:50:00Z,28.7390,-86.0060,0.0,28.8,2 
NDBC,ioos:station:wmo:42039:1,2017-07-01T03:50:00Z,28.7390,-86.0060,0.0,28.7,2 
NDBC,ioos:station:wmo:42039:1,2017-07-01T05:50:00Z,28.7390,-86.0060,0.0,28.5,2 
NDBC,ioos:station:wmo:42039:1,2017-07-01T06:50:00Z,28.7390,-86.0060,0.0,28.6,2 
NDBC,ioos:station:wmo:42039:1,2017-07-01T07:50:00Z,28.7390,-86.0060,0.0,29.0,2 
NDBC,ioos:station:wmo:42039:1,2017-07-01T08:50:00Z,28.7390,-86.0060,0.0,28.8,2 
NDBC,ioos:station:wmo:42039:1,2017-07-01T09:50:00Z,28.7390,-86.0060,0.0,28.7,2 
NDBC,ioos:station:wmo:42039:1,2017-07-01T10:50:00Z,28.7390,-86.0060,0.0,28.5,2 
NDBC,ioos:station:wmo:42039:1,2017-07-01T11:50:00Z,28.7390,-86.0060,0.0,28.5,2 
NDBC,ioos:station:wmo:42039:1,2017-07-01T13:50:00Z,28.7390,-86.0060,0.0,28.6,2 
NDBC,ioos:station:wmo:42039:1,2017-07-01T15:50:00Z,28.7390,-86.0060,0.0,28.8,2 
NDBC,ioos:station:wmo:42039:1,2017-07-01T16:50:00Z,28.7390,-86.0060,0.0,29.2,2 
NDBC,ioos:station:wmo:42039:1,2017-07-01T19:50:00Z,28.7390,-86.0060,0.0,30.6,2 
NDBC,ioos:station:wmo:42039:1,2017-07-01T20:50:00Z,28.7390,-86.0060,0.0,31.0,2 
NDBC,ioos:station:wmo:42039:1,2017-07-01T22:50:00Z,28.7390,-86.0060,0.0,30.7,2 
NDBC,ioos:station:wmo:42039:1,2017-07-01T23:50:00Z,28.7390,-86.0060,0.0,30.9,2 
NDBC,ioos:station:wmo:42039:1,2017-07-02T01:50:00Z,28.7390,-86.0060,0.0,29.9,2 
NDBC,ioos:station:wmo:42039:1,2017-07-02T02:50:00Z,28.7390,-86.0060,0.0,30.0,2 
NDBC,ioos:station:wmo:42039:1,2017-07-02T03:50:00Z,28.7390,-86.0060,0.0,30.1,2 
NDBC,ioos:station:wmo:42039:1,2017-07-02T04:50:00Z,28.7390,-86.0060,0.0,29.8,2 
NDBC,ioos:station:wmo:42039:1,2017-07-02T06:50:00Z,28.7390,-86.0060,0.0,29.5,2 
NDBC,ioos:station:wmo:42039:1,2017-07-02T08:50:00Z,28.7390,-86.0060,0.0,29.4,2 
NDBC,ioos:station:wmo:42039:1,2017-07-02T10:50:00Z,28.7390,-86.0060,0.0,29.4,2 
NDBC,ioos:station:wmo:42039:1,2017-07-02T11:50:00Z,28.7390,-86.0060,0.0,29.3,2 
NDBC,ioos:station:wmo:42039:1,2017-07-02T12:50:00Z,28.7390,-86.0060,0.0,29.2,2 
NDBC,ioos:station:wmo:42039:1,2017-07-02T13:50:00Z,28.7390,-86.0060,0.0,29.3,2 
NDBC,ioos:station:wmo:42039:1,2017-07-02T15:50:00Z,28.7390,-86.0060,0.0,29.6,2 
NDBC,ioos:station:wmo:42039:1,2017-07-02T17:50:00Z,28.7390,-86.0060,0.0,30.4,2 
NDBC,ioos:station:wmo:42039:1,2017-07-02T19:50:00Z,28.7390,-86.0060,0.0,30.4,2 
NDBC,ioos:station:wmo:42039:1,2017-07-02T20:50:00Z,28.7390,-86.0060,0.0,30.4,2 
NDBC,ioos:station:wmo:42039:1,2017-07-02T21:50:00Z,28.7390,-86.0060,0.0,30.1,2 
NDBC,ioos:station:wmo:42039:1,2017-07-02T22:50:00Z,28.7390,-86.0060,0.0,30.1,2 
NDBC,ioos:station:wmo:42039:1,2017-07-02T23:50:00Z,28.7390,-86.0060,0.0,30.2,2 
NDBC,ioos:station:wmo:42039:1,2017-07-03T01:50:00Z,28.7390,-86.0060,0.0,29.6,2 
NDBC,ioos:station:wmo:42039:1,2017-07-03T02:50:00Z,28.7390,-86.0060,0.0,29.5,2 
NDBC,ioos:station:wmo:42039:1,2017-07-03T04:50:00Z,28.7390,-86.0060,0.0,29.7,2 
NDBC,ioos:station:wmo:42039:1,2017-07-03T05:50:00Z,28.7390,-86.0060,0.0,29.5,2 
NDBC,ioos:station:wmo:42039:1,2017-07-03T07:50:00Z,28.7390,-86.0060,0.0,29.3,2 
NDBC,ioos:station:wmo:42039:1,2017-07-03T08:50:00Z,28.7390,-86.0060,0.0,29.3,2 
NDBC,ioos:station:wmo:42039:1,2017-07-03T09:50:00Z,28.7390,-86.0060,0.0,29.2,2 
NDBC,ioos:station:wmo:42039:1,2017-07-03T10:50:00Z,28.7390,-86.0060,0.0,29.2,2 
NDBC,ioos:station:wmo:42039:1,2017-07-03T11:50:00Z,28.7390,-86.0060,0.0,29.1,2 
NDBC,ioos:station:wmo:42039:1,2017-07-03T13:50:00Z,28.7390,-86.0060,0.0,28.9,2 
NDBC,ioos:station:wmo:42039:1,2017-07-03T15:50:00Z,28.7390,-86.0060,0.0,29.2,2 
NDBC,ioos:station:wmo:42039:1,2017-07-03T16:50:00Z,28.7390,-86.0060,0.0,29.8,2 
NDBC,ioos:station:wmo:42039:1,2017-07-03T17:50:00Z,28.7390,-86.0060,0.0,30.0,2 
NDBC,ioos:station:wmo:42039:1,2017-07-03T19:50:00Z,28.7390,-86.0060,0.0,31.3,2 
NDBC,ioos:station:wmo:42039:1,2017-07-03T21:50:00Z,28.7390,-86.0060,0.0,32.2,2 
NDBC,ioos:station:wmo:42039:1,2017-07-03T22:50:00Z,28.7390,-86.0060,0.0,31.1,2 
NDBC,ioos:station:wmo:42039:1,2017-07-03T23:50:00Z,28.7390,-86.0060,0.0,30.7,2 
NDBC,ioos:station:wmo:42039:1,2017-07-04T01:50:00Z,28.7390,-86.0060,0.0,30.4,2 
NDBC,ioos:station:wmo:42039:1,2017-07-04T02:50:00Z,28.7390,-86.0060,0.0,30.3,2 
NDBC,ioos:station:wmo:42039:1,2017-07-04T03:50:00Z,28.7390,-86.0060,0.0,30.7,2 
NDBC,ioos:station:wmo:42039:1,2017-07-04T04:50:00Z,28.7390,-86.0060,0.0,30.1,2 
NDBC,ioos:station:wmo:42039:1,2017-07-04T05:50:00Z,28.7390,-86.0060,0.0,30.0,2 
NDBC,ioos:station:wmo:42039:1,2017-07-04T07:50:00Z,28.7390,-86.0060,0.0,29.7,2 
NDBC,ioos:station:wmo:42039:1,2017-07-04T09:50:00Z,28.7390,-86.0060,0.0,29.8,2 
NDBC,ioos:station:wmo:42039:1,2017-07-04T10:50:00Z,28.7390,-86.0060,0.0,29.5,2 
NDBC,ioos:station:wmo:42039:1,2017-07-04T11:50:00Z,28.7390,-86.0060,0.0,29.5,2 
NDBC,ioos:station:wmo:42039:1,2017-07-04T12:50:00Z,28.7390,-86.0060,0.0,29.6,2 
NDBC,ioos:station:wmo:42039:1,2017-07-04T13:50:00Z,28.7390,-86.0060,0.0,29.8,2 
NDBC,ioos:station:wmo:42039:1,2017-07-04T15:50:00Z,28.7390,-86.0060,0.0,30.6,2 
NDBC,ioos:station:wmo:42039:1,2017-07-04T16:50:00Z,28.7390,-86.0060,0.0,30.9,2 
NDBC,ioos:station:wmo:42039:1,2017-07-04T19:50:00Z,28.7390,-86.0060,0.0,31.8,2 
NDBC,ioos:station:wmo:42039:1,2017-07-04T20:50:00Z,28.7390,-86.0060,0.0,32.2,2 
NDBC,ioos:station:wmo:42039:1,2017-07-04T22:50:00Z,28.7390,-86.0060,0.0,31.2,2 
NDBC,ioos:station:wmo:42039:1,2017-07-04T23:50:00Z,28.7390,-86.0060,0.0,30.7,2 
NDBC,ioos:station:wmo:42039:1,2017-07-05T00:50:00Z,28.7390,-86.0060,0.0,30.4,2 
NDBC,ioos:station:wmo:42039:1,2017-07-05T02:50:00Z,28.7390,-86.0060,0.0,30.8,2 
NDBC,ioos:station:wmo:42039:1,2017-07-05T03:50:00Z,28.7390,-86.0060,0.0,30.8,2 
NDBC,ioos:station:wmo:42039:1,2017-07-05T04:50:00Z,28.7390,-86.0060,0.0,30.4,2 
NDBC,ioos:station:wmo:42039:1,2017-07-05T05:50:00Z,28.7390,-86.0060,0.0,30.1,2 
NDBC,ioos:station:wmo:42039:1,2017-07-05T06:50:00Z,28.7390,-86.0060,0.0,30.0,2 
NDBC,ioos:station:wmo:42039:1,2017-07-05T07:50:00Z,28.7390,-86.0060,0.0,29.7,2 
NDBC,ioos:station:wmo:42039:1,2017-07-05T08:50:00Z,28.7390,-86.0060,0.0,29.8,2 
NDBC,ioos:station:wmo:42039:1,2017-07-05T09:50:00Z,28.7390,-86.0060,0.0,29.8,2 
NDBC,ioos:station:wmo:42039:1,2017-07-05T11:50:00Z,28.7390,-86.0060,0.0,29.7,2 
NDBC,ioos:station:wmo:42039:1,2017-07-05T12:50:00Z,28.7390,-86.0060,0.0,29.5,2 
NDBC,ioos:station:wmo:42039:1,2017-07-05T13:50:00Z,28.7390,-86.0060,0.0,29.8,2 
NDBC,ioos:station:wmo:42039:1,2017-07-05T14:50:00Z,28.7390,-86.0060,0.0,29.9,2 
NDBC,ioos:station:wmo:42039:1,2017-07-05T17:50:00Z,28.7390,-86.0060,0.0,30.6,2 
NDBC,ioos:station:wmo:42039:1,2017-07-05T18:50:00Z,28.7390,-86.0060,0.0,30.9,2 
NDBC,ioos:station:wmo:42039:1,2017-07-05T19:50:00Z,28.7390,-86.0060,0.0,30.9,2 
NDBC,ioos:station:wmo:42039:1,2017-07-05T21:50:00Z,28.7390,-86.0060,0.0,31.0,2 
NDBC,ioos:station:wmo:42039:1,2017-07-05T22:50:00Z,28.7390,-86.0060,0.0,30.9,2 
NDBC,ioos:station:wmo:42039:1,2017-07-05T23:50:00Z,28.7390,-86.0060,0.0,30.7,2 
NDBC,ioos:station:wmo:42039:1,2017-07-06T00:50:00Z,28.7390,-86.0060,0.0,30.5,2 
NDBC,ioos:station:wmo:42039:1,2017-07-06T01:50:00Z,28.7390,-86.0060,0.0,30.4,2 
NDBC,ioos:station:wmo:42039:1,2017-07-06T02:50:00Z,28.7390,-86.0060,0.0,30.3,2 
NDBC,ioos:station:wmo:42039:1,2017-07-06T03:50:00Z,28.7390,-86.0060,0.0,30.4,2 
NDBC,ioos:station:wmo:42039:1,2017-07-06T04:50:00Z,28.7390,-86.0060,0.0,30.5,2 
NDBC,ioos:station:wmo:42039:1,2017-07-06T05:50:00Z,28.7390,-86.0060,0.0,30.5,2 
NDBC,ioos:station:wmo:42039:1,2017-07-06T07:50:00Z,28.7390,-86.0060,0.0,30.5,2 
NDBC,ioos:station:wmo:42039:1,2017-07-06T08:50:00Z,28.7390,-86.0060,0.0,30.4,2 
NDBC,ioos:station:wmo:42039:1,2017-07-06T09:50:00Z,28.7390,-86.0060,0.0,30.2,2 
NDBC,ioos:station:wmo:42039:1,2017-07-06T10:50:00Z,28.7390,-86.0060,0.0,30.1,2 
NDBC,ioos:station:wmo:42039:1,2017-07-06T11:50:00Z,28.7390,-86.0060,0.0,30.1,2 
NDBC,ioos:station:wmo:42039:1,2017-07-06T12:50:00Z,28.7390,-86.0060,0.0,30.1,2 
NDBC,ioos:station:wmo:42039:1,2017-07-06T13:50:00Z,28.7390,-86.0060,0.0,30.0,2 
NDBC,ioos:station:wmo:42039:1,2017-07-06T14:50:00Z,28.7390,-86.0060,0.0,30.0,2 
NDBC,ioos:station:wmo:42039:1,2017-07-06T15:50:00Z,28.7390,-86.0060,0.0,30.0,2 
NDBC,ioos:station:wmo:42039:1,2017-07-06T16:50:00Z,28.7390,-86.0060,0.0,30.7,2 
NDBC,ioos:station:wmo:42039:1,2017-07-06T17:50:00Z,28.7390,-86.0060,0.0,30.9,2 
NDBC,ioos:station:wmo:42039:1,2017-07-06T19:50:00Z,28.7390,-86.0060,0.0,31.1,2 
NDBC,ioos:station:wmo:42039:1,2017-07-06T21:50:00Z,28.7390,-86.0060,0.0,31.2,2 
NDBC,ioos:station:wmo:42039:1,2017-07-06T22:50:00Z,28.7390,-86.0060,0.0,31.2,2 
NDBC,ioos:station:wmo:42039:1,2017-07-06T23:50:00Z,28.7390,-86.0060,0.0,31.0,2 
NDBC,ioos:station:wmo:42039:1,2017-07-07T00:50:00Z,28.7390,-86.0060,0.0,30.8,2 
NDBC,ioos:station:wmo:42039:1,2017-07-07T02:50:00Z,28.7390,-86.0060,0.0,30.6,2 
NDBC,ioos:station:wmo:42039:1,2017-07-07T03:50:00Z,28.7390,-86.0060,0.0,30.6,2 
NDBC,ioos:station:wmo:42039:1,2017-07-07T04:50:00Z,28.7390,-86.0060,0.0,30.7,2 
NDBC,ioos:station:wmo:42039:1,2017-07-07T05:50:00Z,28.7390,-86.0060,0.0,30.7,2 
NDBC,ioos:station:wmo:42039:1,2017-07-07T06:50:00Z,28.7390,-86.0060,0.0,30.6,2 
NDBC,ioos:station:wmo:42039:1,2017-07-07T07:50:00Z,28.7390,-86.0060,0.0,30.3,2 
NDBC,ioos:station:wmo:42039:1,2017-07-07T08:50:00Z,28.7390,-86.0060,0.0,30.1,2 
NDBC,ioos:station:wmo:42039:1,2017-07-07T09:50:00Z,28.7390,-86.0060,0.0,30.2,2 
NDBC,ioos:station:wmo:42039:1,2017-07-07T10:50:00Z,28.7390,-86.0060,0.0,30.2,2 
NDBC,ioos:station:wmo:42039:1,2017-07-07T11:50:00Z,28.7390,-86.0060,0.0,30.0,2 
NDBC,ioos:station:wmo:42039:1,2017-07-07T12:50:00Z,28.7390,-86.0060,0.0,30.0,2 
NDBC,ioos:station:wmo:42039:1,2017-07-07T13:50:00Z,28.7390,-86.0060,0.0,30.2,2 
NDBC,ioos:station:wmo:42039:1,2017-07-07T15:50:00Z,28.7390,-86.0060,0.0,31.0,2 
NDBC,ioos:station:wmo:42039:1,2017-07-07T16:50:00Z,28.7390,-86.0060,0.0,31.6,2 
NDBC,ioos:station:wmo:42039:1,2017-07-07T17:50:00Z,28.7390,-86.0060,0.0,32.3,2 
NDBC,ioos:station:wmo:42039:1,2017-07-07T18:50:00Z,28.7390,-86.0060,0.0,32.7,2 
NDBC,ioos:station:wmo:42039:1,2017-07-07T19:50:00Z,28.7390,-86.0060,0.0,32.4,2 
NDBC,ioos:station:wmo:42039:1,2017-07-07T20:50:00Z,28.7390,-86.0060,0.0,32.5,2 
NDBC,ioos:station:wmo:42039:1,2017-07-07T22:50:00Z,28.7390,-86.0060,0.0,32.2,2 
NDBC,ioos:station:wmo:42039:1,2017-07-07T23:50:00Z,28.7390,-86.0060,0.0,31.8,2 
NDBC,ioos:station:wmo:42039:1,2017-07-08T00:50:00Z,28.7390,-86.0060,0.0,31.8,2 
NDBC,ioos:station:wmo:42039:1,2017-07-08T01:50:00Z,28.7390,-86.0060,0.0,31.7,2 
NDBC,ioos:station:wmo:42039:1,2017-07-08T02:50:00Z,28.7390,-86.0060,0.0,31.6,2 
NDBC,ioos:station:wmo:42039:1,2017-07-08T03:50:00Z,28.7390,-86.0060,0.0,31.4,2 
NDBC,ioos:station:wmo:42039:1,2017-07-08T04:50:00Z,28.7390,-86.0060,0.0,31.0,2 
NDBC,ioos:station:wmo:42039:1,2017-07-08T05:50:00Z,28.7390,-86.0060,0.0,30.9,2 
NDBC,ioos:station:wmo:42039:1,2017-07-08T07:50:00Z,28.7390,-86.0060,0.0,30.7,2 
NDBC,ioos:station:wmo:42039:1,2017-07-08T08:50:00Z,28.7390,-86.0060,0.0,30.8,2 
NDBC,ioos:station:wmo:42039:1,2017-07-08T10:50:00Z,28.7390,-86.0060,0.0,30.3,2 
NDBC,ioos:station:wmo:42039:1,2017-07-08T11:50:00Z,28.7390,-86.0060,0.0,30.2,2 
NDBC,ioos:station:wmo:42039:1,2017-07-08T12:50:00Z,28.7390,-86.0060,0.0,30.2,2 
NDBC,ioos:station:wmo:42039:1,2017-07-08T13:50:00Z,28.7390,-86.0060,0.0,30.5,2 
NDBC,ioos:station:wmo:42039:1,2017-07-08T14:50:00Z,28.7390,-86.0060,0.0,30.2,2 
NDBC,ioos:station:wmo:42039:1,2017-07-08T15:50:00Z,28.7390,-86.0060,0.0,30.3,2 
NDBC,ioos:station:wmo:42039:1,2017-07-08T16:50:00Z,28.7390,-86.0060,0.0,30.7,2 
NDBC,ioos:station:wmo:42039:1,2017-07-08T18:50:00Z,28.7390,-86.0060,0.0,30.5,2 
NDBC,ioos:station:wmo:42039:1,2017-07-08T20:50:00Z,28.7390,-86.0060,0.0,30.8,2 
NDBC,ioos:station:wmo:42039:1,2017-07-08T21:50:00Z,28.7390,-86.0060,0.0,30.9,2 
NDBC,ioos:station:wmo:42039:1,2017-07-08T22:50:00Z,28.7390,-86.0060,0.0,31.0,2 
NDBC,ioos:station:wmo:42039:1,2017-07-08T23:50:00Z,28.7390,-86.0060,0.0,31.1,2 
NDBC,ioos:station:wmo:42039:1,2017-07-09T00:50:00Z,28.7390,-86.0060,0.0,31.1,2 
NDBC,ioos:station:wmo:42039:1,2017-07-09T01:50:00Z,28.7390,-86.0060,0.0,31.2,2 
NDBC,ioos:station:wmo:42039:1,2017-07-09T02:50:00Z,28.7390,-86.0060,0.0,31.0,2 
NDBC,ioos:station:wmo:42039:1,2017-07-09T03:50:00Z,28.7390,-86.0060,0.0,30.9,2 
NDBC,ioos:station:wmo:42039:1,2017-07-09T04:50:00Z,28.7390,-86.0060,0.0,30.8,2 
NDBC,ioos:station:wmo:42039:1,2017-07-09T05:50:00Z,28.7390,-86.0060,0.0,30.7,2 
NDBC,ioos:station:wmo:42039:1,2017-07-09T06:50:00Z,28.7390,-86.0060,0.0,30.7,2 
NDBC,ioos:station:wmo:42039:1,2017-07-09T07:50:00Z,28.7390,-86.0060,0.0,30.6,2 
NDBC,ioos:station:wmo:42039:1,2017-07-09T08:50:00Z,28.7390,-86.0060,0.0,30.5,2 
NDBC,ioos:station:wmo:42039:1,2017-07-09T09:50:00Z,28.7390,-86.0060,0.0,30.5,2 
NDBC,ioos:station:wmo:42039:1,2017-07-09T10:50:00Z,28.7390,-86.0060,0.0,30.3,2 
NDBC,ioos:station:wmo:42039:1,2017-07-09T12:50:00Z,28.7390,-86.0060,0.0,30.3,2 
NDBC,ioos:station:wmo:42039:1,2017-07-09T14:50:00Z,28.7390,-86.0060,0.0,30.0,2 
NDBC,ioos:station:wmo:42039:1,2017-07-09T16:50:00Z,28.7390,-86.0060,0.0,30.9,2 
NDBC,ioos:station:wmo:42039:1,2017-07-09T17:50:00Z,28.7390,-86.0060,0.0,31.9,2 
NDBC,ioos:station:wmo:42039:1,2017-07-09T18:50:00Z,28.7390,-86.0060,0.0,31.5,2 
NDBC,ioos:station:wmo:42039:1,2017-07-09T19:50:00Z,28.7390,-86.0060,0.0,31.2,2 
NDBC,ioos:station:wmo:42039:1,2017-07-09T21:50:00Z,28.7390,-86.0060,0.0,30.9,2 
NDBC,ioos:station:wmo:42039:1,2017-07-09T22:50:00Z,28.7390,-86.0060,0.0,31.0,2 
NDBC,ioos:station:wmo:42039:1,2017-07-09T23:50:00Z,28.7390,-86.0060,0.0,30.7,2 
NDBC,ioos:station:wmo:42039:1,2017-07-10T00:50:00Z,28.7390,-86.0060,0.0,30.7,2 
NDBC,ioos:station:wmo:42039:1,2017-07-10T01:50:00Z,28.7390,-86.0060,0.0,30.7,2 
NDBC,ioos:station:wmo:42039:1,2017-07-10T04:50:00Z,28.7390,-86.0060,0.0,30.3,2 
NDBC,ioos:station:wmo:42039:1,2017-07-10T06:50:00Z,28.7390,-86.0060,0.0,30.3,2 
NDBC,ioos:station:wmo:42039:1,2017-07-10T07:50:00Z,28.7390,-86.0060,0.0,30.2,2 
NDBC,ioos:station:wmo:42039:1,2017-07-10T08:50:00Z,28.7390,-86.0060,0.0,30.2,2 
NDBC,ioos:station:wmo:42039:1,2017-07-10T09:50:00Z,28.7390,-86.0060,0.0,30.2,2 
NDBC,ioos:station:wmo:42039:1,2017-07-10T10:50:00Z,28.7390,-86.0060,0.0,30.1,2 
NDBC,ioos:station:wmo:42039:1,2017-07-10T12:50:00Z,28.7390,-86.0060,0.0,30.2,2 
NDBC,ioos:station:wmo:42039:1,2017-07-10T13:50:00Z,28.7390,-86.0060,0.0,30.3,2 
NDBC,ioos:station:wmo:42039:1,2017-07-10T14:50:00Z,28.7390,-86.0060,0.0,30.4,2 
NDBC,ioos:station:wmo:42039:1,2017-07-10T15:50:00Z,28.7390,-86.0060,0.0,30.7,2 
NDBC,ioos:station:wmo:42039:1,2017-07-10T16:50:00Z,28.7390,-86.0060,0.0,30.9,2 
NDBC,ioos:station:wmo:42039:1,2017-07-10T18:50:00Z,28.7390,-86.0060,0.0,30.9,2 
NDBC,ioos:station:wmo:42039:1,2017-07-10T19:50:00Z,28.7390,-86.0060,0.0,31.0,2 
NDBC,ioos:station:wmo:42039:1,2017-07-10T21:50:00Z,28.7390,-86.0060,0.0,31.3,2 
NDBC,ioos:station:wmo:42039:1,2017-07-10T22:50:00Z,28.7390,-86.0060,0.0,31.4,2 
NDBC,ioos:station:wmo:42039:1,2017-07-10T23:50:00Z,28.7390,-86.0060,0.0,30.7,2 
NDBC,ioos:station:wmo:42039:1,2017-07-11T00:50:00Z,28.7390,-86.0060,0.0,30.0,2 
NDBC,ioos:station:wmo:42039:1,2017-07-11T02:50:00Z,28.7390,-86.0060,0.0,29.6,2 
NDBC,ioos:station:wmo:42039:1,2017-07-11T04:50:00Z,28.7390,-86.0060,0.0,29.4,2 
NDBC,ioos:station:wmo:42039:1,2017-07-11T05:50:00Z,28.7390,-86.0060,0.0,29.3,2 
NDBC,ioos:station:wmo:42039:1,2017-07-11T07:50:00Z,28.7390,-86.0060,0.0,29.2,2 
NDBC,ioos:station:wmo:42039:1,2017-07-11T08:50:00Z,28.7390,-86.0060,0.0,29.2,2 
NDBC,ioos:station:wmo:42039:1,2017-07-11T09:50:00Z,28.7390,-86.0060,0.0,29.1,2 
NDBC,ioos:station:wmo:42039:1,2017-07-11T10:50:00Z,28.7390,-86.0060,0.0,29.0,2 
NDBC,ioos:station:wmo:42039:1,2017-07-11T12:50:00Z,28.7390,-86.0060,0.0,28.9,2 
NDBC,ioos:station:wmo:42039:1,2017-07-11T13:50:00Z,28.7390,-86.0060,0.0,28.8,2 
NDBC,ioos:station:wmo:42039:1,2017-07-11T15:50:00Z,28.7390,-86.0060,0.0,28.4,2 
NDBC,ioos:station:wmo:42039:1,2017-07-11T16:50:00Z,28.7390,-86.0060,0.0,28.4,2 
NDBC,ioos:station:wmo:42039:1,2017-07-11T18:50:00Z,28.7390,-86.0060,0.0,29.2,2 
NDBC,ioos:station:wmo:42039:1,2017-07-11T20:50:00Z,28.7390,-86.0060,0.0,29.4,2 
NDBC,ioos:station:wmo:42039:1,2017-07-11T21:50:00Z,28.7390,-86.0060,0.0,29.4,2 
NDBC,ioos:station:wmo:42039:1,2017-07-11T23:50:00Z,28.7390,-86.0060,0.0,29.6,2 
NDBC,ioos:station:wmo:42039:1,2017-07-12T00:50:00Z,28.7390,-86.0060,0.0,29.6,2 
NDBC,ioos:station:wmo:42039:1,2017-07-12T01:50:00Z,28.7390,-86.0060,0.0,29.8,2 
NDBC,ioos:station:wmo:42039:1,2017-07-12T02:50:00Z,28.7390,-86.0060,0.0,29.8,2 
NDBC,ioos:station:wmo:42039:1,2017-07-12T04:50:00Z,28.7390,-86.0060,0.0,29.8,2 
NDBC,ioos:station:wmo:42039:1,2017-07-12T06:50:00Z,28.7390,-86.0060,0.0,29.7,2 
NDBC,ioos:station:wmo:42039:1,2017-07-12T07:50:00Z,28.7390,-86.0060,0.0,29.6,2 
NDBC,ioos:station:wmo:42039:1,2017-07-12T08:50:00Z,28.7390,-86.0060,0.0,29.5,2 
NDBC,ioos:station:wmo:42039:1,2017-07-12T09:50:00Z,28.7390,-86.0060,0.0,29.4,2 
NDBC,ioos:station:wmo:42039:1,2017-07-12T10:50:00Z,28.7390,-86.0060,0.0,29.4,2 
NDBC,ioos:station:wmo:42039:1,2017-07-12T11:50:00Z,28.7390,-86.0060,0.0,29.4,2 
NDBC,ioos:station:wmo:42039:1,2017-07-12T12:50:00Z,28.7390,-86.0060,0.0,29.4,2 
NDBC,ioos:station:wmo:42039:1,2017-07-12T13:50:00Z,28.7390,-86.0060,0.0,29.5,2 
NDBC,ioos:station:wmo:42039:1,2017-07-12T14:50:00Z,28.7390,-86.0060,0.0,29.5,2 
NDBC,ioos:station:wmo:42039:1,2017-07-12T15:50:00Z,28.7390,-86.0060,0.0,29.7,2 
NDBC,ioos:station:wmo:42039:1,2017-07-12T17:50:00Z,28.7390,-86.0060,0.0,30.3,2 
NDBC,ioos:station:wmo:42039:1,2017-07-12T21:50:00Z,28.7390,-86.0060,0.0,29.8,2 
NDBC,ioos:station:wmo:42039:1,2017-07-12T22:50:00Z,28.7390,-86.0060,0.0,29.9,2 
NDBC,ioos:station:wmo:42039:1,2017-07-13T00:50:00Z,28.7390,-86.0060,0.0,29.8,2 
NDBC,ioos:station:wmo:42039:1,2017-07-13T01:50:00Z,28.7390,-86.0060,0.0,29.8,2 
NDBC,ioos:station:wmo:42039:1,2017-07-13T02:50:00Z,28.7390,-86.0060,0.0,29.7,2 
NDBC,ioos:station:wmo:42039:1,2017-07-13T03:50:00Z,28.7390,-86.0060,0.0,29.7,2 
NDBC,ioos:station:wmo:42039:1,2017-07-13T04:50:00Z,28.7390,-86.0060,0.0,29.7,2 
NDBC,ioos:station:wmo:42039:1,2017-07-13T05:50:00Z,28.7390,-86.0060,0.0,29.6,2 
NDBC,ioos:station:wmo:42039:1,2017-07-13T06:50:00Z,28.7390,-86.0060,0.0,29.6,2 
NDBC,ioos:station:wmo:42039:1,2017-07-13T08:50:00Z,28.7390,-86.0060,0.0,29.6,2 
NDBC,ioos:station:wmo:42039:1,2017-07-13T09:50:00Z,28.7390,-86.0060,0.0,29.6,2 
NDBC,ioos:station:wmo:42039:1,2017-07-13T10:50:00Z,28.7390,-86.0060,0.0,29.5,2 
NDBC,ioos:station:wmo:42039:1,2017-07-13T11:50:00Z,28.7390,-86.0060,0.0,29.5,2 
NDBC,ioos:station:wmo:42039:1,2017-07-13T13:50:00Z,28.7390,-86.0060,0.0,29.4,2 
NDBC,ioos:station:wmo:42039:1,2017-07-13T14:50:00Z,28.7390,-86.0060,0.0,29.5,2 
NDBC,ioos:station:wmo:42039:1,2017-07-13T15:50:00Z,28.7390,-86.0060,0.0,29.7,2 
NDBC,ioos:station:wmo:42039:1,2017-07-13T16:50:00Z,28.7390,-86.0060,0.0,29.7,2 
NDBC,ioos:station:wmo:42039:1,2017-07-13T17:50:00Z,28.7390,-86.0060,0.0,29.6,2 
NDBC,ioos:station:wmo:42039:1,2017-07-13T18:50:00Z,28.7390,-86.0060,0.0,29.7,2 
NDBC,ioos:station:wmo:42039:1,2017-07-13T19:50:00Z,28.7390,-86.0060,0.0,29.6,2 
NDBC,ioos:station:wmo:42039:1,2017-07-13T21:50:00Z,28.7390,-86.0060,0.0,29.7,2 
NDBC,ioos:station:wmo:42039:1,2017-07-13T23:50:00Z,28.7390,-86.0060,0.0,29.7,2 
NDBC,ioos:station:wmo:42039:1,2017-07-14T00:50:00Z,28.7390,-86.0060,0.0,29.7,2 
NDBC,ioos:station:wmo:42039:1,2017-07-14T02:50:00Z,28.7390,-86.0060,0.0,29.7,2 
NDBC,ioos:station:wmo:42039:1,2017-07-14T03:50:00Z,28.7390,-86.0060,0.0,29.7,2 
NDBC,ioos:station:wmo:42039:1,2017-07-14T05:50:00Z,28.7390,-86.0060,0.0,29.7,2 
NDBC,ioos:station:wmo:42039:1,2017-07-14T06:50:00Z,28.7390,-86.0060,0.0,29.6,2 
NDBC,ioos:station:wmo:42039:1,2017-07-14T07:50:00Z,28.7390,-86.0060,0.0,29.6,2 
NDBC,ioos:station:wmo:42039:1,2017-07-14T09:50:00Z,28.7390,-86.0060,0.0,29.6,2 
NDBC,ioos:station:wmo:42039:1,2017-07-14T10:50:00Z,28.7390,-86.0060,0.0,29.5,2 
NDBC,ioos:station:wmo:42039:1,2017-07-14T12:50:00Z,28.7390,-86.0060,0.0,29.5,2 
NDBC,ioos:station:wmo:42039:1,2017-07-14T13:50:00Z,28.7390,-86.0060,0.0,29.5,2 
NDBC,ioos:station:wmo:42039:1,2017-07-14T14:50:00Z,28.7390,-86.0060,0.0,29.5,2 
NDBC,ioos:station:wmo:42039:1,2017-07-14T15:50:00Z,28.7390,-86.0060,0.0,29.4,2 
NDBC,ioos:station:wmo:42039:1,2017-07-14T16:50:00Z,28.7390,-86.0060,0.0,29.3,2 
NDBC,ioos:station:wmo:42039:1,2017-07-14T18:50:00Z,28.7390,-86.0060,0.0,29.3,2 
NDBC,ioos:station:wmo:42039:1,2017-07-14T19:50:00Z,28.7390,-86.0060,0.0,29.3,2 
NDBC,ioos:station:wmo:42039:1,2017-07-14T21:50:00Z,28.7390,-86.0060,0.0,29.3,2 
NDBC,ioos:station:wmo:42039:1,2017-07-14T23:50:00Z,28.7390,-86.0060,0.0,29.2,2 
NDBC,ioos:station:wmo:42039:1,2017-07-15T01:50:00Z,28.7390,-86.0060,0.0,29.2,2 
NDBC,ioos:station:wmo:42039:1,2017-07-15T02:50:00Z,28.7390,-86.0060,0.0,29.2,2 
NDBC,ioos:station:wmo:42039:1,2017-07-15T03:50:00Z,28.7390,-86.0060,0.0,29.2,2 
NDBC,ioos:station:wmo:42039:1,2017-07-15T04:50:00Z,28.7390,-86.0060,0.0,29.1,2 
NDBC,ioos:station:wmo:42039:1,2017-07-15T05:50:00Z,28.7390,-86.0060,0.0,29.1,2 
NDBC,ioos:station:wmo:42039:1,2017-07-15T07:50:00Z,28.7390,-86.0060,0.0,29.1,2 
NDBC,ioos:station:wmo:42039:1,2017-07-15T08:50:00Z,28.7390,-86.0060,0.0,29.1,2 
NDBC,ioos:station:wmo:42039:1,2017-07-15T09:50:00Z,28.7390,-86.0060,0.0,29.1,2 
NDBC,ioos:station:wmo:42039:1,2017-07-15T11:50:00Z,28.7390,-86.0060,0.0,29.1,2 
NDBC,ioos:station:wmo:42039:1,2017-07-15T13:50:00Z,28.7390,-86.0060,0.0,29.1,2 
NDBC,ioos:station:wmo:42039:1,2017-07-15T14:50:00Z,28.7390,-86.0060,0.0,29.2,2 
NDBC,ioos:station:wmo:42039:1,2017-07-15T15:50:00Z,28.7390,-86.0060,0.0,29.3,2 
NDBC,ioos:station:wmo:42039:1,2017-07-15T16:50:00Z,28.7390,-86.0060,0.0,29.7,2 
NDBC,ioos:station:wmo:42039:1,2017-07-15T17:50:00Z,28.7390,-86.0060,0.0,29.6,2 
NDBC,ioos:station:wmo:42039:1,2017-07-15T19:50:00Z,28.7390,-86.0060,0.0,29.7,2 
NDBC,ioos:station:wmo:42039:1,2017-07-15T22:50:00Z,28.7390,-86.0060,0.0,29.6,2 
NDBC,ioos:station:wmo:42039:1,2017-07-15T23:50:00Z,28.7390,-86.0060,0.0,29.4,2 
NDBC,ioos:station:wmo:42039:1,2017-07-16T00:50:00Z,28.7390,-86.0060,0.0,29.6,2 
NDBC,ioos:station:wmo:42039:1,2017-07-16T02:50:00Z,28.7390,-86.0060,0.0,29.3,2 
NDBC,ioos:station:wmo:42039:1,2017-07-16T03:50:00Z,28.7390,-86.0060,0.0,29.2,2 
NDBC,ioos:station:wmo:42039:1,2017-07-16T04:50:00Z,28.7390,-86.0060,0.0,29.3,2 
NDBC,ioos:station:wmo:42039:1,2017-07-16T05:50:00Z,28.7390,-86.0060,0.0,29.3,2 
NDBC,ioos:station:wmo:42039:1,2017-07-16T06:50:00Z,28.7390,-86.0060,0.0,29.4,2 
NDBC,ioos:station:wmo:42039:1,2017-07-16T07:50:00Z,28.7390,-86.0060,0.0,29.5,2 
NDBC,ioos:station:wmo:42039:1,2017-07-16T08:50:00Z,28.7390,-86.0060,0.0,29.4,2 
NDBC,ioos:station:wmo:42039:1,2017-07-16T09:50:00Z,28.7390,-86.0060,0.0,29.3,2 
NDBC,ioos:station:wmo:42039:1,2017-07-16T10:50:00Z,28.7390,-86.0060,0.0,29.3,2 
NDBC,ioos:station:wmo:42039:1,2017-07-16T11:50:00Z,28.7390,-86.0060,0.0,29.3,2 
NDBC,ioos:station:wmo:42039:1,2017-07-16T12:50:00Z,28.7390,-86.0060,0.0,29.3,2 
NDBC,ioos:station:wmo:42039:1,2017-07-16T13:50:00Z,28.7390,-86.0060,0.0,29.2,2 
NDBC,ioos:station:wmo:42039:1,2017-07-16T14:50:00Z,28.7390,-86.0060,0.0,29.3,2 
NDBC,ioos:station:wmo:42039:1,2017-07-16T16:50:00Z,28.7390,-86.0060,0.0,29.3,2 
NDBC,ioos:station:wmo:42039:1,2017-07-16T18:50:00Z,28.7390,-86.0060,0.0,29.3,2 
NDBC,ioos:station:wmo:42039:1,2017-07-16T19:50:00Z,28.7390,-86.0060,0.0,29.4,2 
NDBC,ioos:station:wmo:42039:1,2017-07-16T20:50:00Z,28.7390,-86.0060,0.0,29.5,2 
NDBC,ioos:station:wmo:42039:1,2017-07-16T22:50:00Z,28.7390,-86.0060,0.0,29.5,2 
NDBC,ioos:station:wmo:42039:1,2017-07-16T23:50:00Z,28.7390,-86.0060,0.0,29.4,2 
NDBC,ioos:station:wmo:42039:1,2017-07-17T00:50:00Z,28.7390,-86.0060,0.0,29.4,2 
NDBC,ioos:station:wmo:42039:1,2017-07-17T02:50:00Z,28.7390,-86.0060,0.0,29.4,2 
NDBC,ioos:station:wmo:42039:1,2017-07-17T03:50:00Z,28.7390,-86.0060,0.0,29.4,2 
NDBC,ioos:station:wmo:42039:1,2017-07-17T04:50:00Z,28.7390,-86.0060,0.0,29.4,2 